Location: Table Mountain
(47.2500°N, 120.5778°W)
Time: 23:39:58
(UTC-07:00)

Envisat - Pass Details

Date: 11 October 2017
Orbit: 764 x 766 km, 98.2° (Epoch: 21 October)

Event Time Altitude Azimuth Distance (km) Brightness Sun altitude
Exits shadow 19:10:56 11° 93° (E) 2,199 4.7 -9.2°
Maximum altitude 19:13:40 17° 58° (ENE) 1,866 4.5 -9.6°
Drops below altitude 10° 19:16:51 10° 19° (NNE) 2,309 5.3 -10.2°
Sets 19:19:54 0° 360° (N) 3,240 6.3 -10.7°
